Weather History for KVTP - March, 2014

Change the Weather History Date:

Wednesday, March 19, 2014

  Actual Average (KTAD) Record (KTAD)
Temperature  
Mean Temperature 22 °F 43 °F  
Max Temperature 33 °F 59 °F 79 °F (2004)
Min Temperature 12 °F 27 °F -5 °F (1965)
Degree Days  
Heating Degree Days 42 22  
Month to date heating degree days 459  
Since 1 July heating degree days 4581  
Cooling Degree Days 0 0  
Month to date cooling degree days 0  
Year to date cooling degree days 0  
Moisture  
Dew Point 8 °F    
Average Humidity 59    
Maximum Humidity 92    
Minimum Humidity 28    
Precipitation  
Precipitation 0.00 in 0.03 in 0.35 in (1973)
Month to date precipitation 0.52  
Year to date precipitation 1.41  
Sea Level Pressure  
Sea Level Pressure 30.10 in    
Wind  
Wind Speed 8 mph (SW)    
Max Wind Speed 22 mph    
Max Gust Speed 38 mph    
Visibility 9 miles    
Events Snow    
T = Trace of Precipitation, MM = Missing Value Source: NWS Daily Summary

Daily Weather History Graph

Daily Weather History Graph

Search for Another Location

Airport or City:

Trip Planner

Search our weather history database for the weather conditions in past years. The results will help you decide how hot, cold, wet, or windy it might be!

Date:

Astronomy

Mar. 19, 2014 Rise Set
Actual Time 7:05 AM MDT 7:11 PM MDT
Civil Twilight 6:39 AM MDT 7:37 PM MDT
Nautical Twilight 6:09 AM MDT 8:08 PM MDT
Astronomical Twilight 5:38 AM MDT 8:39 PM MDT
Moon 10:28 PM MDT (3/19) 8:36 AM MDT (3/19)
Length of Visible Light 12h 58m
Length of Day
12h 06m
Waning Gibbous, 91% of the Moon is Illuminated
Mar 19
Waning Gibbous
Mar 23
Last Quarter
Mar 30
New
Apr 7
First Quarter
Apr 15
Full

Hourly Weather History & Observations

Time (MDT) Temp. Windchill Dew Point Humidity Pressure Visibility Wind Dir Wind Speed Gust Speed Precip Events Conditions
12:12 AM 12.2 °F 0.7 °F 8.6 °F 85% 30.01 in 7.0 mi East 8.1 mph - N/A   Overcast
12:32 AM 12.2 °F 1.7 °F 8.6 °F 85% 30.01 in 5.0 mi East 6.9 mph - N/A   Overcast
12:52 AM 12.2 °F 0.7 °F 8.6 °F 85% 30.01 in 7.0 mi East 8.1 mph - N/A   Overcast
1:13 AM 12.2 °F 0.7 °F 8.6 °F 85% 30.01 in 10.0 mi East 8.1 mph - N/A Snow Light Snow
1:32 AM 12.2 °F 1.7 °F 8.6 °F 85% 30.01 in 10.0 mi East 6.9 mph - N/A   Overcast
1:49 AM 12.2 °F 0.7 °F 10.4 °F 92% 30.01 in 10.0 mi East 8.1 mph - N/A   Overcast
2:13 AM 12.2 °F 2.9 °F 10.4 °F 92% 30.01 in 7.0 mi East 5.8 mph - N/A   Overcast
2:26 AM 12.2 °F 4.3 °F 10.4 °F 92% 30.01 in 7.0 mi East 4.6 mph - N/A   Overcast
2:51 AM 12.2 °F 4.3 °F 10.4 °F 92% 30.01 in 10.0 mi East 4.6 mph - N/A   Overcast
3:08 AM 12.2 °F 6.1 °F 8.6 °F 85% 30.01 in 10.0 mi East 3.5 mph - N/A Snow Light Snow
3:26 AM 12.2 °F - 8.6 °F 85% 30.01 in 10.0 mi Calm Calm - N/A   Scattered Clouds
3:53 AM 14.0 °F - 10.4 °F 86% 30.01 in 10.0 mi Calm Calm - N/A   Clear
4:10 AM 14.0 °F - 10.4 °F 86% 30.01 in 10.0 mi Calm Calm - N/A   Scattered Clouds
4:31 AM 14.0 °F - 10.4 °F 86% 30.02 in 10.0 mi Calm Calm - N/A   Mostly Cloudy
4:53 AM 12.2 °F 6.1 °F 10.4 °F 92% 30.03 in 10.0 mi WSW 3.5 mph - N/A   Mostly Cloudy
5:12 AM 12.2 °F 6.1 °F 10.4 °F 92% 30.03 in 10.0 mi West 3.5 mph - N/A   Mostly Cloudy
5:33 AM 12.2 °F 4.3 °F 10.4 °F 92% 30.03 in 10.0 mi West 4.6 mph - N/A   Overcast
5:53 AM 14.0 °F 5.1 °F 10.4 °F 86% 30.05 in 10.0 mi West 5.8 mph - N/A   Mostly Cloudy
6:12 AM 14.0 °F 6.5 °F 10.4 °F 86% 30.05 in 10.0 mi West 4.6 mph - N/A   Scattered Clouds
6:30 AM 14.0 °F 6.5 °F 10.4 °F 86% 30.06 in 10.0 mi SW 4.6 mph - N/A   Scattered Clouds
6:51 AM 12.2 °F 2.9 °F 10.4 °F 92% 30.06 in 10.0 mi SW 5.8 mph - N/A   Scattered Clouds
7:09 AM 12.2 °F 1.7 °F 10.4 °F 92% 30.07 in 10.0 mi SW 6.9 mph - N/A   Clear
7:32 AM 14.0 °F 3.9 °F 10.4 °F 86% 30.08 in 10.0 mi WSW 6.9 mph - N/A   Scattered Clouds
7:50 AM 15.8 °F 6.1 °F 12.2 °F 86% 30.08 in 10.0 mi WSW 6.9 mph - N/A   Mostly Cloudy
8:13 AM 15.8 °F 10.2 °F 12.2 °F 86% 30.10 in 7.0 mi West 3.5 mph - N/A   Overcast
8:31 AM 15.8 °F 7.2 °F 12.2 °F 86% 30.10 in 7.0 mi WSW 5.8 mph - N/A   Overcast
8:47 AM 17.6 °F 12.3 °F 14.0 °F 86% 30.12 in 10.0 mi West 3.5 mph - N/A   Mostly Cloudy
9:05 AM 19.4 °F 12.8 °F 14.0 °F 80% 30.12 in 10.0 mi WSW 4.6 mph - N/A   Scattered Clouds
9:33 AM 21.2 °F 16.4 °F 15.8 °F 80% 30.13 in 7.0 mi West 3.5 mph - N/A   Clear
9:50 AM 21.2 °F - 15.8 °F 80% 30.14 in 7.0 mi Calm Calm - N/A   Scattered Clouds
10:03 AM 21.2 °F 12.6 °F 14.0 °F 74% 30.14 in 7.0 mi WSW 6.9 mph - N/A   Mostly Cloudy
10:31 AM 21.2 °F 9.5 °F 14.0 °F 74% 30.14 in 4.0 mi SW 11.5 mph 20.7 mph N/A   Haze
10:50 AM 23.0 °F 11.7 °F 14.0 °F 68% 30.14 in 3.0 mi SW 11.5 mph 20.7 mph N/A   Haze
11:12 AM 24.8 °F 15.3 °F 14.0 °F 64% 30.14 in 5.0 mi WSW 9.2 mph 19.6 mph N/A   Haze
11:30 AM 26.6 °F 18.2 °F 12.2 °F 55% 30.14 in 5.0 mi WSW 8.1 mph 24.2 mph N/A   Haze
11:53 AM 26.6 °F 19.1 °F 12.2 °F 55% 30.14 in 3.0 mi WSW 6.9 mph 25.3 mph N/A Snow Light Snow
12:08 PM 28.4 °F 19.7 °F 12.2 °F 51% 30.13 in 5.0 mi SW 9.2 mph 25.3 mph N/A   Haze
12:33 PM 28.4 °F 19.1 °F 12.2 °F 51% 30.12 in 7.0 mi SW 10.4 mph 25.3 mph N/A   Clear
12:50 PM 28.4 °F 18.0 °F 10.4 °F 47% 30.12 in 5.0 mi WSW 12.7 mph 27.6 mph N/A   Haze
1:13 PM 32.0 °F 23.6 °F 12.2 °F 44% 30.13 in 10.0 mi SW 10.4 mph 21.9 mph N/A   Clear
1:28 PM 32.0 °F 20.8 °F 10.4 °F 41% 30.12 in 7.0 mi SW 17.3 mph 28.8 mph N/A   Clear
1:49 PM 30.2 °F 17.1 °F 8.6 °F 40% 30.12 in 10.0 mi SW 21.9 mph 31.1 mph N/A   Clear
2:12 PM 32.0 °F 19.5 °F 8.6 °F 38% 30.12 in 10.0 mi SW 21.9 mph 31.1 mph N/A   Clear
2:32 PM 32.0 °F 21.2 °F 6.8 °F 35% 30.12 in 10.0 mi SW 16.1 mph 32.2 mph N/A   Clear
2:53 PM 33.8 °F 22.5 °F 5.0 °F 30% 30.12 in 10.0 mi SW 19.6 mph 35.7 mph N/A   Clear
3:11 PM 33.8 °F 22.5 °F 6.8 °F 32% 30.12 in 10.0 mi SW 19.6 mph 32.2 mph N/A   Clear
3:33 PM 33.8 °F 23.5 °F 6.8 °F 32% 30.12 in 10.0 mi SW 16.1 mph 33.4 mph N/A   Clear
3:53 PM 33.8 °F 23.5 °F 5.0 °F 30% 30.12 in 10.0 mi SW 16.1 mph 33.4 mph N/A   Clear
4:12 PM 33.8 °F 23.9 °F 5.0 °F 30% 30.12 in 10.0 mi WSW 15.0 mph 26.5 mph N/A   Clear
4:32 PM 33.8 °F 22.2 °F 5.0 °F 30% 30.12 in 10.0 mi SW 20.7 mph 28.8 mph N/A   Clear
4:52 PM 33.8 °F 25.3 °F 5.0 °F 30% 30.13 in 10.0 mi SW 11.5 mph 24.2 mph N/A   Clear
5:03 PM 33.8 °F 26.4 °F 5.0 °F 30% 30.13 in 10.0 mi SW 9.2 mph 28.8 mph N/A   Clear
5:32 PM 33.8 °F 28.6 °F 3.2 °F 28% 30.14 in 10.0 mi WSW 5.8 mph - N/A   Clear
5:52 PM 32.0 °F 23.6 °F 3.2 °F 30% 30.12 in 10.0 mi SW 10.4 mph 23.0 mph N/A   Clear
6:04 PM 32.0 °F 22.5 °F 3.2 °F 30% 30.12 in 10.0 mi WSW 12.7 mph 23.0 mph N/A   Clear
6:30 PM 30.2 °F 20.2 °F 3.2 °F 32% 30.13 in 10.0 mi SW 12.7 mph 20.7 mph N/A   Clear
6:53 PM 30.2 °F 21.3 °F 3.2 °F 32% 30.14 in 10.0 mi WSW 10.4 mph 27.6 mph N/A   Clear
7:11 PM 28.4 °F 22.2 °F 1.4 °F 31% 30.14 in 10.0 mi WSW 5.8 mph - N/A   Clear
7:28 PM 28.4 °F 21.2 °F 1.4 °F 31% 30.14 in 10.0 mi SW 6.9 mph - N/A   Clear
7:51 PM 28.4 °F 19.7 °F 1.4 °F 31% 30.14 in 10.0 mi WSW 9.2 mph 26.5 mph N/A   Clear
8:12 PM 28.4 °F 16.6 °F 1.4 °F 31% 30.15 in 10.0 mi SW 16.1 mph 24.2 mph N/A   Clear
8:31 PM 28.4 °F 18.0 °F 1.4 °F 31% 30.16 in 10.0 mi SW 12.7 mph 23.0 mph N/A   Clear
8:52 PM 28.4 °F 19.7 °F 1.4 °F 31% 30.16 in 10.0 mi SW 9.2 mph 20.7 mph N/A   Clear
9:13 PM 28.4 °F 16.6 °F 1.4 °F 31% 30.16 in 10.0 mi SW 16.1 mph 29.9 mph N/A   Clear
9:30 PM 28.4 °F 17.5 °F 1.4 °F 31% 30.17 in 10.0 mi SW 13.8 mph 21.9 mph N/A   Clear
9:53 PM 26.6 °F 14.3 °F 1.4 °F 34% 30.16 in 10.0 mi SW 16.1 mph 27.6 mph N/A   Clear
10:09 PM 26.6 °F 14.3 °F 1.4 °F 34% 30.14 in 10.0 mi SW 16.1 mph 29.9 mph N/A   Clear
10:33 PM 26.6 °F 12.4 °F 1.4 °F 34% 30.14 in 10.0 mi SW 21.9 mph 33.4 mph N/A   Clear
10:44 PM 26.6 °F 13.8 °F 1.4 °F 34% 30.14 in 10.0 mi SW 17.3 mph 33.4 mph N/A   Clear
11:12 PM 26.6 °F 13.8 °F 1.4 °F 34% 30.14 in 10.0 mi SW 17.3 mph 34.5 mph N/A   Clear
11:33 PM 26.6 °F 12.7 °F 1.4 °F 34% 30.14 in 10.0 mi SW 20.7 mph 38.0 mph N/A   Clear
11:52 PM 26.6 °F 13.4 °F 1.4 °F 34% 30.13 in 10.0 mi SW 18.4 mph 33.4 mph N/A   Clear